Latest Coastal Weather Observations for Truscott

IDW60701

Issued at 10:32 pm WST Friday 4 September 2015 (issued every 10 minutes, with the page automatically refreshed every 10 minutes)

About coastal observations | Map of coastal stations | Coastal observations for WA | Marine services | Other Formats
Station Details ID: 001020 Name: TRUSCOTT Lat: -14.09 Lon: 126.39 Height: 51.0 m
Data from the previous 72 hours. | See also: Recent months at Truscott
Date/Time
WST
Temp

°C
Wind Pressure Rain
since 9am
mm
Weather Cloud Vis
km
Sea
Height
m
Swell
Dir
 
Speed
knots
Gust
knots
hPa Trend Height
m
Period
s
Dir
04/10:30pm 23.0 CALM 0 0 1016.0 - 0.0 - - 10 - - - -
04/10:00pm 24.0 CALM 0 - 1016.0 - 0.0 - - 8 - - - -
04/09:30pm 24.0 CALM 0 - 1016.0 - 0.0 - - 9 - - - -
04/09:00pm 23.8 CALM 0 - 1016.3 - 0.0 - - 10 - - - -
04/08:30pm 24.0 CALM 0 - 1016.0 - 0.0 - - 10 - - - -
04/08:00pm 25.0 CALM 0 - 1016.0 - 0.0 - - 7 - - - -
04/07:30pm 25.0 CALM 0 - 1016.0 - 0.0 - - 10 - - - -
04/07:00pm 26.0 N 2 - 1015.0 - 0.0 - - 10 - - - -
04/06:30pm 26.0 N 4 - 1015.0 - 0.0 - - 10 - - - -
04/06:00pm 26.1 N 5 - 1014.4 - 0.0 - - 10 - - - -
04/05:30pm 26.0 N 6 - 1014.0 - 0.0 - - 10 - - - -
04/05:00pm 27.0 N 7 - 1014.0 - 0.0 - - 10 - - - -
04/04:30pm 28.0 N 9 - 1014.0 - 0.0 - - 10 - - - -
04/04:00pm 29.0 N 9 - 1013.0 - 0.0 - - 10 - - - -
04/03:30pm 29.0 N 10 - 1013.0 - 0.0 - - 10 - - - -
04/03:00pm 28.9 NNE 11 - 1012.6 - 0.0 - - 10 - - - -
04/02:30pm 29.0 N 11 - 1013.0 - 0.0 - - 10 - - - -
04/02:00pm 29.0 N 10 - 1013.0 - 0.0 - - 10 - - - -
04/01:30pm 30.0 N 10 - 1013.0 - 0.0 - - 10 - - - -
04/01:00pm 31.0 N 10 - 1013.0 - 0.0 - - 10 - - - -
04/12:30pm 32.0 NNW 10 - 1013.0 - 0.0 - - 10 - - - -
04/12:00pm 34.8 ENE 8 - 1013.8 - 0.0 - - 10 - - - -
04/11:30am 34.0 ENE 9 - 1014.0 - 0.0 - - 10 - - - -
04/11:00am 34.0 ENE 8 - 1015.0 - 0.0 - - 10 - - - -
04/10:30am 34.0 ENE 6 - 1015.0 - 0.0 - - 10 - - - -
04/10:00am 33.0 SSE 5 - 1015.0 - 0.0 - - 10 - - - -
04/09:30am 31.0 S 6 - 1016.0 - 0.0 - - 10 - - - -
04/09:00am 29.6 SE 4 - 1016.1 - 0.0 - - 10 - - - -
04/08:30am 29.0 SE 5 - 1016.0 - 0.0 - - 10 - - - -
04/08:00am 27.0 SSE 4 - 1016.0 - 0.0 - - 10 - - - -
04/07:30am 26.0 E 3 - 1016.0 - 0.0 - - 10 - - - -
04/07:00am 24.0 CALM 0 - 1016.0 - 0.0 - - 10 - - - -
04/06:38am 23.0 E 5 - 1015.0 - 0.0 - - 10 - - - -
04/06:30am 23.0 E 5 - 1015.0 - 0.0 - - 8 - - - -
04/06:19am 21.0 CALM 0 - 1015.0 - 0.0 - - 5 - - - -
04/06:14am 21.0 CALM 0 - 1015.0 - 0.0 - - 7 - - - -
04/06:01am 21.0 CALM 0 - 1015.0 - 0.0 - - 5 - - - -
04/06:00am 21.1 CALM 0 - 1014.8 - 0.0 - - 6 - - - -
04/05:51am 21.0 CALM 0 - 1015.0 - 0.0 - - 10 - - - -
04/05:34am 20.0 CALM 0 - 1015.0 - 0.0 - - 5 - - - -
04/05:30am 20.0 CALM 0 - 1015.0 - 0.0 - - 10 - - - -
04/05:09am 20.0 S 1 - 1014.0 - 0.0 - - 7 - - - -
04/05:00am 21.0 SSW 3 - 1014.0 - 0.0 - - 6 - - - -
04/04:37am 21.0 SSW 2 - 1014.0 - 0.0 - - 5 - - - -
04/04:30am 21.0 SSW 3 - 1014.0 - 0.0 - - 10 - - - -
04/04:00am 23.0 SW 4 - 1014.0 - 0.0 - - 7 - - - -
04/03:30am 23.0 SW 4 - 1014.0 - 0.0 - - 10 - - - -
04/03:00am 23.1 SSW 5 - 1013.7 - 0.0 - - 10 - - - -
04/02:30am 22.0 CALM 0 - 1014.0 - 0.0 - - 7 - - - -
04/02:00am 23.0 SW 4 - 1014.0 - 0.0 - - 10 - - - -
04/01:39am 23.0 SW 2 - 1014.0 - 0.0 - - 9 - - - -
04/01:30am 24.0 WSW 4 - 1014.0 - 0.0 - - 7 - - - -
04/01:17am 24.0 WSW 3 - 1014.0 - 0.0 - - 5 - - - -
04/01:00am 24.0 WSW 4 - 1014.0 - 0.0 - - 10 - - - -
04/12:30am 24.0 WSW 7 - 1014.0 - 0.0 - - 8 - - - -
04/12:00am 24.2 WSW 7 - 1014.8 - 0.0 - - 9 - - - -
 
Date/Time
WST
Temp

°C
Wind Pressure Rain
since 9am
mm
Weather Cloud Vis
km
Sea
Height
m
Swell
Dir
 
Speed
knots
Gust
knots
hPa Trend Height
m
Period
s
Dir
03/11:30pm 24.0 SW 6 - 1015.0 - 0.0 - - 10 - - - -
03/11:00pm 24.0 WSW 6 - 1016.0 - 0.0 - - 10 - - - -
03/10:30pm 24.0 SW 5 - 1016.0 - 0.0 - - 8 - - - -
03/10:00pm 24.0 WSW 5 - 1016.0 - 0.0 - - 10 - - - -
03/09:30pm 25.0 WSW 4 - 1016.0 - 0.0 - - 10 - - - -
03/09:00pm 24.8 W 4 - 1015.9 - 0.0 - - 8 - - - -
03/08:30pm 25.0 WSW 5 - 1016.0 - 0.0 - - 10 - - - -
03/08:00pm 26.0 WSW 5 - 1016.0 - 0.0 - - 10 - - - -
03/07:30pm 26.0 W 5 - 1015.0 - 0.0 - - 10 - - - -
03/07:00pm 26.0 WNW 4 - 1015.0 - 0.0 - - 10 - - - -
03/06:30pm 26.0 NW 5 - 1015.0 - 0.0 - - 10 - - - -
03/06:00pm 25.9 NW 5 - 1014.0 - 0.0 - - 10 - - - -
03/05:30pm 26.0 NW 6 - 1014.0 - 0.0 - - 10 - - - -
03/05:00pm 27.0 NW 7 - 1014.0 - 0.0 - - 10 - - - -
03/04:30pm 28.0 NNW 8 - 1013.0 - 0.0 - - 10 - - - -
03/04:00pm 29.0 NNW 10 - 1013.0 - 0.0 - - 10 - - - -
03/03:30pm 29.0 NNW 9 - 1013.0 - 0.0 - - 10 - - - -
03/03:00pm 29.2 N 11 - 1012.9 - 0.0 - - 10 - - - -
03/02:30pm 30.0 NNE 13 - 1013.0 - 0.0 - - 10 - - - -
03/02:00pm 30.0 N 12 - 1013.0 - 0.0 - - 10 - - - -
03/01:30pm 30.0 N 15 - 1013.0 - 0.0 - - 10 - - - -
03/01:00pm 31.0 N 14 - 1013.0 - 0.0 - - 8 - - - -
03/12:30pm 33.0 N 12 - 1013.0 - 0.0 - - 10 - - - -
03/12:00pm 35.1 N 11 - 1013.0 - 0.0 - - 10 - - - -
03/11:30am 37.0 E 8 - 1013.0 - 0.0 - - 10 - - - -
03/11:00am 36.0 S 6 - 1014.0 - 0.0 - - 10 - - - -
03/10:30am 35.0 SSW 9 - 1014.0 - 0.0 - - 10 - - - -
03/10:00am 35.0 SSW 12 - 1015.0 - 0.0 - - 10 - - - -
03/09:30am 34.0 SSW 12 - 1015.0 - 0.0 - - 10 - - - -
03/09:00am 32.4 S 11 - 1015.3 - 0.0 - - 10 - - - -
03/08:30am 31.0 SSW 8 - 1016.0 - 0.0 - - 10 - - - -
03/08:00am 30.0 S 6 - 1016.0 - 0.0 - - 10 - - - -
03/07:30am 27.0 SW 5 - 1016.0 - 0.0 - - 10 - - - -
03/07:00am 26.0 SW 7 - 1015.0 - 0.0 - - 10 - - - -
03/06:30am 24.0 SW 8 - 1015.0 - 0.0 - - 10 - - - -
03/06:00am 23.4 SW 8 - 1014.9 - 0.0 - - 10 - - - -
03/05:30am 23.0 SW 8 - 1014.0 - 0.0 - - 10 - - - -
03/05:00am 23.0 SW 7 - 1014.0 - 0.0 - - 10 - - - -
03/04:30am 23.0 SW 8 - 1014.0 - 0.0 - - 10 - - - -
03/04:00am 23.0 SW 7 - 1014.0 - 0.0 - - 10 - - - -
03/03:30am 24.0 SW 7 - 1014.0 - 0.0 - - 10 - - - -
03/03:00am 23.5 SW 6 - 1013.7 - 0.0 - - 9 - - - -
03/02:30am 24.0 SW 7 - 1014.0 - 0.0 - - 9 - - - -
03/02:00am 24.0 SW 7 - 1014.0 - 0.0 - - 10 - - - -
03/01:30am 24.0 SW 7 - 1014.0 - 0.0 - - 10 - - - -
03/01:00am 24.0 WSW 7 - 1014.0 - 0.0 - - 10 - - - -
03/12:30am 24.0 WSW 6 - 1015.0 - 0.0 - - 10 - - - -
03/12:00am 24.2 WSW 6 - 1015.0 - 0.0 - - 10 - - - -
 
Date/Time
WST
Temp

°C
Wind Pressure Rain
since 9am
mm
Weather Cloud Vis
km
Sea
Height
m
Swell
Dir
 
Speed
knots
Gust
knots
hPa Trend Height
m
Period
s
Dir
02/11:30pm 24.0 WSW 6 - 1015.0 - 0.0 - - 9 - - - -
02/11:00pm 24.0 WSW 5 - 1015.0 - 0.0 - - 10 - - - -
02/10:30pm 25.0 SW 5 - 1016.0 - 0.0 - - 10 - - - -
02/10:00pm 25.0 W 5 - 1015.0 - 0.0 - - 10 - - - -
02/09:30pm 25.0 W 5 - 1015.0 - 0.0 - - 10 - - - -
02/09:27pm 25.0 W 5 - 1015.0 - 0.0 - - 10 - - - -
02/09:11pm 25.0 W 6 - 1015.0 - 0.0 - - 5 - - - -
02/09:00pm 24.9 W 6 - 1015.3 - 0.0 - - 10 - - - -
02/08:30pm 25.0 W 5 - 1015.0 - 0.0 - - 10 - - - -
02/08:00pm 25.0 W 5 - 1015.0 - 0.0 - - 7 - - - -
02/07:30pm 26.0 W 5 - 1015.0 - 0.0 - - 10 - - - -
02/07:00pm 26.0 W 6 - 1014.0 - 0.0 - - 7 - - - -
02/06:30pm 27.0 W 5 - 1014.0 - 0.0 - - 10 - - - -
02/06:00pm 26.8 WNW 6 - 1013.1 - 0.0 - - 10 - - - -
02/05:30pm 28.0 NW 7 - 1013.0 - 0.0 - - 10 - - - -
02/05:00pm 29.0 WNW 9 - 1012.0 - 0.0 - - 10 - - - -
02/04:30pm 30.0 W 7 - 1012.0 - 0.0 - - 10 - - - -
02/04:00pm 31.0 WNW 8 - 1012.0 - 0.0 - - 10 - - - -
02/03:30pm 31.0 WNW 9 - 1012.0 - 0.0 - - 10 - - - -
02/03:00pm 31.1 WNW 9 - 1011.8 - 0.0 - - 10 - - - -
02/02:30pm 32.0 W 10 - 1012.0 - 0.0 - - 10 - - - -
02/02:00pm 31.0 WNW 9 - 1012.0 - 0.0 - - 10 - - - -
02/01:30pm 32.0 W 9 - 1012.0 - 0.0 - - 10 - - - -
02/01:00pm 32.0 WNW 9 - 1013.0 - 0.0 - - 10 - - - -
02/12:30pm 31.0 WNW 9 - 1013.0 - 0.0 - - 10 - - - -
02/12:00pm 31.5 WNW 9 - 1013.2 - 0.0 - - 10 - - - -
02/11:30am 31.0 WNW 9 - 1014.0 - 0.0 - - 10 - - - -
02/11:00am 31.0 W 6 - 1014.0 - 0.0 - - 10 - - - -
02/10:30am 30.0 W 6 - 1015.0 - 0.0 - - 10 - - - -
02/10:00am 30.0 SW 5 - 1015.0 - 0.0 - - 10 - - - -
02/09:30am 29.0 SSW 6 - 1016.0 - 0.0 - - 10 - - - -
02/09:00am 27.6 SSW 7 - 1015.9 - 0.0 - - 10 - - - -
02/08:52am 27.0 SSW 7 - 1016.0 - 0.0 - - 10 - - - -
02/08:37am 27.0 SSW 8 - 1016.0 - 0.0 - - 5 - - - -
02/08:30am 27.0 SW 8 - 1016.0 - 0.0 - - 10 - - - -
02/08:00am 26.0 SW 7 - 1016.0 - 0.0 - - 10 - - - -
02/07:30am 25.0 SW 7 - 1016.0 - 0.0 - - 10 - - - -
02/07:00am 24.0 SW 6 - 1015.0 - 0.0 - - 10 - - - -
02/06:30am 22.0 SSW 5 - 1015.0 - 0.0 - - 10 - - - -
02/06:00am 21.3 SSW 4 - 1014.8 - 0.0 - - 10 - - - -
02/05:30am 21.0 SSW 4 - 1014.0 - 0.0 - - 10 - - - -
02/05:00am 21.0 SW 5 - 1014.0 - 0.0 - - 10 - - - -
02/04:30am 22.0 SW 5 - 1013.0 - 0.0 - - 10 - - - -
02/04:00am 22.0 SW 5 - 1013.0 - 0.0 - - 10 - - - -
02/03:30am 23.0 W 5 - 1013.0 - 0.0 - - 7 - - - -
02/03:00am 23.2 WSW 6 - 1013.3 - 0.0 - - 10 - - - -
02/02:30am 23.0 WSW 6 - 1013.0 - 0.0 - - 10 - - - -
02/02:00am 24.0 WSW 6 - 1013.0 - 0.0 - - 10 - - - -
02/01:30am 24.0 WSW 5 - 1013.0 - 0.0 - - 10 - - - -
02/01:00am 24.0 WSW 6 - 1014.0 - 0.0 - - 9 - - - -
02/12:39am 24.0 WSW 5 - 1014.0 - 0.0 - - 10 - - - -
02/12:30am 24.0 WSW 5 - 1014.0 - 0.0 - - 8 - - - -
02/12:20am 24.0 WSW 5 - 1014.0 - 0.0 - - 5 - - - -
02/12:00am 24.2 WSW 5 - 1014.0 - 0.0 - - 9 - - - -
 
Date/Time
WST
Temp

°C
Wind Pressure Rain
since 9am
mm
Weather Cloud Vis
km
Sea
Height
m
Swell
Dir
 
Speed
knots
Gust
knots
hPa Trend Height
m
Period
s
Dir
01/11:30pm 24.0 WSW 6 - 1014.0 - 0.0 - - 10 - - - -
01/11:00pm 25.0 WSW 6 - 1014.0 - 0.0 - - 10 - - - -

Other Formats:

Comma delimited format used in spreadsheet applications
http://www.bom.gov.au/fwo/IDW60701/IDW60701.95101.axf

JavaScript Object Notation format (JSON) in row-major order
http://www.bom.gov.au/fwo/IDW60701/IDW60701.95101.json